TimeCST,TemperatureF,Dew PointF,Humidity,Sea Level PressureIn,VisibilityMPH,Wind Direction,Wind SpeedMPH,Gust SpeedMPH,PrecipitationIn,Events,Conditions,WindDirDegrees,DateUTC
12:15 AM,59.2,47.3,65,29.92,10.0,South,18.4,25.3,N/A,,Clear,190,2012-11-11 06:15:00
12:35 AM,58.5,47.3,66,29.92,10.0,South,19.6,25.3,N/A,,Clear,190,2012-11-11 06:35:00
12:55 AM,58.3,47.3,67,29.93,10.0,South,15.0,24.2,N/A,,Clear,190,2012-11-11 06:55:00
1:15 AM,58.6,47.3,66,29.93,10.0,SSW,17.3,23.0,N/A,,Clear,200,2012-11-11 07:15:00
1:35 AM,59.2,46.8,63,29.93,10.0,South,18.4,26.5,N/A,,Clear,190,2012-11-11 07:35:00
1:55 AM,59.4,46.8,63,29.94,10.0,SSW,18.4,26.5,N/A,,Clear,200,2012-11-11 07:55:00
2:15 AM,59.0,46.4,63,29.94,10.0,SSW,19.6,26.5,N/A,,Clear,200,2012-11-11 08:15:00
2:35 AM,59.9,46.8,62,29.94,10.0,SSW,20.7,29.9,N/A,,Clear,200,2012-11-11 08:35:00
2:55 AM,59.7,46.9,63,29.95,10.0,SSW,17.3,31.1,N/A,,Scattered Clouds,200,2012-11-11 08:55:00
3:15 AM,59.2,46.9,64,29.94,10.0,South,18.4,21.9,N/A,,Scattered Clouds,190,2012-11-11 09:15:00
3:35 AM,59.0,47.1,65,29.95,10.0,SSW,18.4,23.0,N/A,,Clear,200,2012-11-11 09:35:00
3:55 AM,59.0,47.5,66,29.96,10.0,SSW,18.4,25.3,N/A,,Clear,210,2012-11-11 09:55:00
4:15 AM,59.0,47.7,66,29.96,10.0,SSW,18.4,23.0,N/A,,Clear,200,2012-11-11 10:15:00
4:35 AM,59.0,48.2,67,29.96,10.0,SSW,26.5,33.4,N/A,,Clear,200,2012-11-11 10:35:00
4:55 AM,58.5,47.3,66,29.95,10.0,SSW,20.7,-,N/A,,Clear,200,2012-11-11 10:55:00
5:15 AM,57.9,47.3,68,29.94,10.0,South,19.6,24.2,N/A,,Clear,190,2012-11-11 11:15:00
5:35 AM,56.7,46.9,70,29.93,10.0,South,20.7,25.3,N/A,,Clear,190,2012-11-11 11:35:00
5:55 AM,55.2,46.6,73,29.92,10.0,South,18.4,25.3,N/A,,Clear,180,2012-11-11 11:55:00
6:15 AM,54.9,46.6,74,29.92,10.0,South,20.7,24.2,N/A,,Clear,180,2012-11-11 12:15:00
6:35 AM,54.5,46.6,75,29.92,10.0,South,17.3,24.2,N/A,,Clear,180,2012-11-11 12:35:00
6:55 AM,54.7,46.8,75,29.93,10.0,South,19.6,24.2,N/A,,Mostly Cloudy,190,2012-11-11 12:55:00
7:15 AM,55.4,48.2,77,29.92,10.0,South,17.3,23.0,N/A,,Overcast,190,2012-11-11 13:15:00
7:55 AM,56.8,47.5,71,29.92,10.0,South,25.3,31.1,N/A,,Overcast,190,2012-11-11 13:55:00
8:15 AM,58.3,48.4,70,29.91,10.0,South,25.3,33.4,N/A,,Overcast,190,2012-11-11 14:15:00
8:35 AM,59.0,48.2,67,29.91,10.0,South,24.2,29.9,N/A,,Overcast,190,2012-11-11 14:35:00
8:55 AM,60.1,49.1,67,29.90,10.0,South,25.3,33.4,N/A,,Overcast,190,2012-11-11 14:55:00
9:15 AM,62.2,49.8,64,29.89,10.0,South,25.3,36.8,N/A,,Overcast,190,2012-11-11 15:15:00
9:35 AM,62.4,50.0,64,29.88,10.0,South,27.6,36.8,N/A,,Scattered Clouds,190,2012-11-11 15:35:00
9:55 AM,64.4,50.0,59,29.87,10.0,SSW,29.9,41.4,N/A,,Scattered Clouds,200,2012-11-11 15:55:00
10:15 AM,64.0,50.7,62,29.87,10.0,South,24.2,33.4,N/A,,Mostly Cloudy,190,2012-11-11 16:15:00
10:35 AM,64.6,51.1,62,29.87,10.0,SSW,26.5,35.7,N/A,,Overcast,200,2012-11-11 16:35:00
10:55 AM,64.4,51.8,64,29.85,10.0,South,29.9,36.8,N/A,,Overcast,190,2012-11-11 16:55:00
11:15 AM,65.5,51.1,60,29.84,10.0,South,36.8,42.6,N/A,,Overcast,190,2012-11-11 17:15:00
11:35 AM,66.0,51.1,59,29.83,10.0,South,31.1,42.6,N/A,,Mostly Cloudy,190,2012-11-11 17:35:00
11:55 AM,67.5,51.3,56,29.82,10.0,SSW,27.6,35.7,N/A,,Scattered Clouds,200,2012-11-11 17:55:00
12:15 PM,67.5,51.3,56,29.80,10.0,SSW,27.6,43.7,N/A,,Clear,200,2012-11-11 18:15:00
12:35 PM,67.5,51.6,57,29.80,10.0,South,33.4,43.7,N/A,,Scattered Clouds,190,2012-11-11 18:35:00
12:55 PM,67.1,51.6,57,29.79,10.0,SSW,31.1,42.6,N/A,,Overcast,200,2012-11-11 18:55:00
1:15 PM,67.8,51.8,56,29.78,10.0,SSW,27.6,41.4,N/A,,Overcast,200,2012-11-11 19:15:00
1:35 PM,68.0,51.8,56,29.76,10.0,South,26.5,40.3,N/A,,Scattered Clouds,190,2012-11-11 19:35:00
1:55 PM,67.8,51.3,55,29.76,10.0,South,33.4,47.2,N/A,,Mostly Cloudy,190,2012-11-11 19:55:00
2:15 PM,66.4,51.1,58,29.76,10.0,SSW,29.9,47.2,N/A,,Mostly Cloudy,200,2012-11-11 20:15:00
2:35 PM,66.6,51.4,58,29.76,10.0,South,29.9,41.4,N/A,,Overcast,190,2012-11-11 20:35:00
2:55 PM,66.2,51.1,58,29.77,10.0,South,35.7,46.0,N/A,,Overcast,190,2012-11-11 20:55:00
3:15 PM,66.0,51.1,59,29.77,10.0,South,28.8,40.3,N/A,,Overcast,190,2012-11-11 21:15:00
3:35 PM,65.5,51.3,60,29.76,10.0,South,24.2,41.4,N/A,,Overcast,190,2012-11-11 21:35:00
3:55 PM,65.3,51.4,61,29.76,10.0,South,27.6,49.5,N/A,,Overcast,190,2012-11-11 21:55:00
4:15 PM,64.4,51.6,63,29.76,10.0,SSW,31.1,43.7,N/A,Rain,Light Rain,200,2012-11-11 22:15:00
4:35 PM,58.8,55.4,88,29.78,4.0,South,26.5,35.7,N/A,Rain,Light Rain,190,2012-11-11 22:35:00
4:55 PM,58.5,55.4,90,29.82,4.0,SW,20.7,33.4,N/A,Rain,Rain,220,2012-11-11 22:55:00
5:15 PM,54.5,52.9,94,29.85,4.0,WNW,16.1,25.3,N/A,Rain,Rain,290,2012-11-11 23:15:00
5:35 PM,53.1,52.0,96,29.86,4.0,West,12.7,-,N/A,,Heavy Drizzle,280,2012-11-11 23:35:00
5:55 PM,52.5,51.8,97,29.87,4.0,West,9.2,-,N/A,Rain,Rain,270,2012-11-11 23:55:00
6:15 PM,52.5,51.6,97,29.87,4.0,WSW,9.2,-,N/A,,Heavy Drizzle,240,2012-11-12 00:15:00
6:35 PM,51.8,51.8,100,29.87,4.0,SW,6.9,-,N/A,,Heavy Drizzle,230,2012-11-12 00:35:00
6:55 PM,51.8,51.6,99,29.87,4.0,SW,5.8,-,N/A,Rain,Rain,230,2012-11-12 00:55:00
7:15 PM,51.8,51.3,98,29.86,7.0,SSW,6.9,-,N/A,Rain,Light Rain,210,2012-11-12 01:15:00
7:35 PM,51.8,51.8,100,29.87,10.0,SSW,8.1,-,N/A,Rain,Light Rain,210,2012-11-12 01:35:00
7:55 PM,51.4,51.1,99,29.86,7.0,SSW,8.1,-,N/A,Rain,Light Rain,200,2012-11-12 01:55:00
8:15 PM,51.4,51.1,99,29.87,7.0,SSW,8.1,-,N/A,Rain,Rain,210,2012-11-12 02:15:00
8:35 PM,51.3,50.9,99,29.88,7.0,SW,10.4,-,N/A,Rain,Heavy Rain,220,2012-11-12 02:35:00
8:55 PM,51.3,50.9,99,29.89,7.0,SW,12.7,-,N/A,Rain,Light Rain,230,2012-11-12 02:55:00
9:15 PM,51.1,50.7,99,29.89,5.0,WSW,10.4,-,N/A,Rain,Rain,240,2012-11-12 03:15:00
9:55 PM,46.4,44.6,93,29.92,7.0,West,16.1,-,N/A,Rain,Rain,270,2012-11-12 03:55:00
10:15 PM,43.7,42.4,95,29.94,7.0,West,13.8,-,N/A,Rain,Rain,270,2012-11-12 04:15:00
10:35 PM,42.1,41.0,96,29.94,7.0,West,16.1,23.0,N/A,Rain,Rain,270,2012-11-12 04:35:00
10:55 PM,40.1,38.7,95,29.95,7.0,West,21.9,27.6,N/A,Rain,Light Rain,270,2012-11-12 04:55:00
11:15 PM,39.2,37.6,94,29.94,7.0,West,16.1,21.9,N/A,Rain,Light Rain,280,2012-11-12 05:15:00
11:35 PM,37.4,37.4,100,29.95,10.0,West,17.3,23.0,N/A,,Drizzle,280,2012-11-12 05:35:00
11:55 PM,37.0,35.2,93,29.97,10.0,West,16.1,26.5,N/A,Rain,Light Rain,280,2012-11-12 05:55:00